Weather reports worldwide

Advertisment
West Plains Regional, United States of America (72348): temperature & dewpoint: 11.07.2019 02:00:00 - 17.07.2019 02:00:00 (CDT)West Plains Regional, United States of America (72348): wind speed: 11.07.2019 02:00:00 - 17.07.2019 02:00:00 (CDT)West Plains Regional, United States of America (72348): wind direction: 11.07.2019 02:00:00 - 17.07.2019 02:00:00 (CDT)West Plains Regional, United States of America (72348): reduced air pressure: 11.07.2019 02:00:00 - 17.07.2019 02:00:00 (CDT)West Plains Regional, United States of America (72348): visibility: 11.07.2019 02:00:00 - 17.07.2019 02:00:00 (CDT)West Plains Regional, United States of America (72348): precipitation: 11.07.2019 02:00:00 - 17.07.2019 02:00:00 (CDT)
Date & Time tt [°C] td [°C] ff [km/h] ff [kn] dd ppp [hPa] vv [km] rr [mm]
17.07.2019 02:00:00 22,8 21,7 5 3 WSW 1014,6 16 -
17.07.2019 01:00:00 23,3 21,7 0 0 N 1014,7 16 -
17.07.2019 00:00:00 23,9 22,2 8 4 SW 1014,5 16 -
16.07.2019 23:00:00 24,4 22,2 5 3 SW 1014,4 16 -
16.07.2019 22:00:00 25,0 22,2 5 3 SSW 1014,0 16 -
16.07.2019 21:00:00 25,0 22,8 5 3 SW 1013,4 16 -
16.07.2019 20:00:00 26,7 22,8 0 0 N 1013,1 16 -
16.07.2019 19:00:00 27,8 22,8 8 4 - 1013,3 16 -
16.07.2019 18:00:00 28,3 22,2 9 5 W 1012,4 16 -
16.07.2019 17:00:00 28,3 22,8 15 8 WSW 1012,2 16 -
16.07.2019 16:00:00 27,2 22,2 11 6 W 1012,7 16 -
16.07.2019 15:00:00 26,1 21,7 13 7 WSW 1013,1 16 0,0
16.07.2019 14:00:00 25,6 21,7 16 9 W 1013,4 16 -
16.07.2019 13:00:00 26,7 21,1 15 8 W 1013,7 16 -
16.07.2019 12:00:00 26,7 21,1 11 6 WSW 1013,8 16 -
16.07.2019 11:00:00 25,6 21,1 11 6 WSW 1013,6 16 -
16.07.2019 10:00:00 25,0 21,1 11 6 WSW 1013,0 16 -
16.07.2019 09:00:00 23,9 21,1 9 5 W 1013,2 16 -
16.07.2019 08:00:00 22,8 21,1 8 4 WSW 1012,7 16 -
16.07.2019 07:00:00 22,8 21,7 5 3 WSW 1012,2 16 -
16.07.2019 06:00:00 22,2 21,7 9 5 SW 1011,6 8 0,5
16.07.2019 05:00:00 22,2 21,7 5 3 SSW 1011,1 1,6 0,3
16.07.2019 04:00:00 22,2 21,7 0 0 N 1010,7 1,2 -
16.07.2019 03:00:00 22,2 21,7 5 3 S 1011,1 8 -
16.07.2019 02:00:00 22,2 21,7 5 3 SSW 1011,4 2,4 -
16.07.2019 01:00:00 22,8 21,7 8 4 SSE 1011,6 8 -
16.07.2019 00:00:00 22,8 21,7 8 4 SSE 1011,8 8 -
15.07.2019 23:00:00 22,8 21,7 9 5 SSE 1011,7 16 -
15.07.2019 22:00:00 22,8 21,7 8 4 SE 1011,3 16 -
15.07.2019 21:00:00 23,3 21,7 9 5 SE 1010,6 16 -
15.07.2019 20:00:00 23,9 22,2 13 7 SSE 1010,6 16 0,3
15.07.2019 19:00:00 23,9 22,8 0 0 N 1010,3 16 0,3
15.07.2019 18:00:00 23,9 22,2 9 5 ESE 1010,3 16 0,0
15.07.2019 17:00:00 24,4 22,2 9 5 - 1010,6 16 0,0
15.07.2019 16:00:00 24,4 21,7 16 9 SE 1010,7 16 0,0
15.07.2019 15:00:00 25,0 22,8 9 5 SSE 1011,3 13 0,3
15.07.2019 14:00:00 25,0 22,8 18 10 ESE 1011,7 16 0,8
15.07.2019 13:00:00 23,3 22,2 11 6 ESE 1012,1 4,0 0,3
15.07.2019 12:00:00 22,8 21,7 13 7 E 1012,3 2,8 0,5
15.07.2019 11:00:00 21,7 20,6 16 9 E 1012,7 1,6 0,3
15.07.2019 10:00:00 21,1 20,0 18 10 E 1013,1 4,0 0,0
15.07.2019 09:00:00 20,6 19,4 15 8 ENE 1013,5 2,4 1,5
15.07.2019 08:00:00 20,6 19,4 16 9 E 1013,6 6 2,3
15.07.2019 07:00:00 20,6 19,4 13 7 E 1013,9 6 1,8
15.07.2019 06:00:00 20,0 18,9 18 10 E 1014,0 10 0,5
15.07.2019 05:00:00 20,0 18,9 21 11 E 1014,3 8 1,0
15.07.2019 04:00:00 20,0 18,9 22 12 E 1014,9 4,8 2,0
15.07.2019 03:00:00 20,0 18,9 21 11 E 1015,5 6 0,3
15.07.2019 02:00:00 20,0 18,9 18 10 E 1016,2 10 2,5
15.07.2019 01:00:00 20,6 18,9 18 10 E 1017,3 15 0,3
15.07.2019 00:00:00 20,6 18,9 15 8 E 1017,7 16 0,0
14.07.2019 23:00:00 21,1 18,3 16 9 E 1017,9 16 -
14.07.2019 22:00:00 21,1 18,3 11 6 E 1018,2 16 -
14.07.2019 21:00:00 21,1 18,9 13 7 E 1018,1 16 -
14.07.2019 20:00:00 21,7 18,9 13 7 E 1018,6 16 -
14.07.2019 19:00:00 22,2 18,9 11 6 E 1019,0 16 -
14.07.2019 18:00:00 22,8 18,9 9 5 E 1019,2 16 -
14.07.2019 17:00:00 23,9 18,9 18 10 SE 1019,5 16 -
14.07.2019 16:00:00 24,4 19,4 13 7 SE 1019,4 16 -
14.07.2019 15:00:00 24,4 18,3 18 10 SE 1019,7 16 -
14.07.2019 14:00:00 25,6 18,9 21 11 SSE 1019,8 16 -
14.07.2019 13:00:00 25,6 19,4 16 9 SSE 1020,2 16 -
14.07.2019 12:00:00 25,0 19,4 16 9 SSE 1020,5 16 -
14.07.2019 11:00:00 25,0 20,6 11 6 SE 1020,3 16 -
14.07.2019 10:00:00 24,4 20,0 18 10 SSE 1020,1 16 -
14.07.2019 09:00:00 25,0 20,6 13 7 SE 1019,5 16 -
14.07.2019 08:00:00 23,9 21,1 13 7 ESE 1019,0 16 -
14.07.2019 07:00:00 22,2 21,1 5 3 SE 1018,3 16 -
14.07.2019 06:00:00 22,2 21,1 9 5 ESE 1018,1 16 -
14.07.2019 05:00:00 22,8 21,1 5 3 SE 1017,9 16 -
14.07.2019 04:00:00 23,3 21,7 13 7 SE 1017,5 16 -
14.07.2019 03:00:00 23,3 21,7 11 6 SE 1017,8 16 -
14.07.2019 02:00:00 23,3 21,7 5 3 ENE 1017,7 16 -
14.07.2019 01:00:00 23,9 22,2 5 3 E 1017,5 16 -
14.07.2019 00:00:00 25,0 22,2 11 6 SE 1017,0 16 -
13.07.2019 23:00:00 25,0 22,2 5 3 E 1016,9 16 -
13.07.2019 22:00:00 26,1 21,7 8 4 E 1016,3 16 -
13.07.2019 21:00:00 26,7 21,7 5 3 E 1015,7 16 -
13.07.2019 20:00:00 28,3 22,2 9 5 E 1015,5 16 -
13.07.2019 19:00:00 29,4 22,2 11 6 E 1015,5 16 -
13.07.2019 18:00:00 30,0 21,7 15 8 E 1015,5 16 -
13.07.2019 17:00:00 30,0 21,1 16 9 ENE 1015,7 16 -
13.07.2019 16:00:00 30,0 21,7 15 8 E 1016,3 16 -
13.07.2019 15:00:00 29,4 21,1 13 7 E 1017,0 16 -
13.07.2019 14:00:00 29,4 20,6 13 7 E 1017,1 16 -
13.07.2019 13:00:00 28,3 20,0 15 8 E 1017,2 16 -
13.07.2019 12:00:00 28,3 20,0 18 10 ESE 1017,4 16 -
13.07.2019 11:00:00 26,7 20,6 16 9 ENE 1017,0 16 -
13.07.2019 10:00:00 26,1 20,0 15 8 E 1016,8 16 -
13.07.2019 09:00:00 24,4 20,0 11 6 ENE 1017,0 16 -
13.07.2019 08:00:00 23,3 19,4 9 5 ENE 1016,4 16 -
13.07.2019 07:00:00 21,1 19,4 8 4 NNE 1015,7 16 -
13.07.2019 06:00:00 20,6 18,9 5 3 NE 1015,7 16 -
13.07.2019 05:00:00 20,0 18,3 8 4 NNE 1015,2 16 -
13.07.2019 04:00:00 20,0 18,3 9 5 NNE 1014,7 16 -
13.07.2019 03:00:00 20,6 18,9 5 3 NNE 1014,7 16 -
13.07.2019 02:00:00 21,7 19,4 8 4 ENE 1014,8 16 -
13.07.2019 01:00:00 22,2 19,4 8 4 E 1014,3 16 -
13.07.2019 00:00:00 21,7 19,4 0 0 N 1014,4 16 -
12.07.2019 23:00:00 23,9 19,4 0 0 N 1014,1 16 -
12.07.2019 22:00:00 24,4 20,0 5 3 ENE 1013,9 16 -
12.07.2019 21:00:00 25,6 20,6 0 0 N 1013,7 16 -
12.07.2019 20:00:00 27,2 20,0 5 3 ENE 1013,7 16 -
12.07.2019 19:00:00 29,4 20,0 5 3 ENE 1013,5 16 -
12.07.2019 18:00:00 29,4 20,6 11 6 ENE 1013,4 16 -
12.07.2019 17:00:00 30,0 20,0 8 4 E 1013,4 16 -
12.07.2019 16:00:00 30,0 20,6 9 5 NE 1013,8 16 -
12.07.2019 15:00:00 29,4 20,0 15 8 E 1014,4 16 -
12.07.2019 14:00:00 27,2 19,4 13 7 E 1014,8 16 -
12.07.2019 13:00:00 28,9 19,4 13 7 E 1015,1 16 -
12.07.2019 12:00:00 27,2 19,4 15 8 ENE 1015,4 16 -
12.07.2019 11:00:00 26,1 20,0 9 5 NE 1015,3 16 -
12.07.2019 10:00:00 25,6 20,0 13 7 NE 1015,3 16 -
12.07.2019 09:00:00 25,0 20,0 11 6 NNE 1015,4 16 -
12.07.2019 08:00:00 22,8 20,0 5 3 NNE 1015,1 16 -
12.07.2019 07:00:00 20,6 18,9 0 0 N 1014,9 16 -
12.07.2019 06:00:00 19,4 17,8 8 4 N 1014,3 16 -
12.07.2019 05:00:00 19,4 17,8 0 0 N 1013,8 16 -
12.07.2019 04:00:00 19,4 17,2 0 0 N 1013,5 16 -
12.07.2019 03:00:00 20,0 17,8 0 0 N 1013,8 16 -
12.07.2019 02:00:00 20,0 18,3 5 3 NNW 1014,3 16 -
12.07.2019 01:00:00 20,0 17,8 0 0 N 1014,5 16 -
12.07.2019 00:00:00 21,1 18,3 0 0 N 1014,7 16 -
11.07.2019 23:00:00 21,7 18,3 0 0 N 1014,4 16 -
11.07.2019 22:00:00 22,8 18,3 0 0 N 1013,8 16 -
11.07.2019 21:00:00 23,3 18,3 8 4 NNW 1013,3 16 -
11.07.2019 20:00:00 25,6 18,3 9 5 N 1013,6 16 -
11.07.2019 19:00:00 27,8 18,3 9 5 N 1013,7 16 -
11.07.2019 18:00:00 28,3 17,8 15 8 NW 1013,8 16 -
11.07.2019 17:00:00 29,4 18,9 16 9 NNW 1014,0 16 -
11.07.2019 16:00:00 29,4 18,9 15 8 N 1014,2 16 -
11.07.2019 15:00:00 29,4 18,3 11 6 - 1014,7 16 -
11.07.2019 14:00:00 28,3 18,3 8 4 - 1015,2 16 -
11.07.2019 13:00:00 28,3 18,9 9 5 N 1015,9 16 -
11.07.2019 12:00:00 27,2 18,3 16 9 NNW 1016,5 16 -
11.07.2019 11:00:00 26,7 19,4 15 8 NNE 1016,8 16 -
11.07.2019 10:00:00 25,6 19,4 9 5 N 1016,8 16 -
11.07.2019 09:00:00 23,9 18,9 13 7 N 1017,0 16 -
11.07.2019 08:00:00 21,7 18,3 8 4 N 1017,0 16 -
11.07.2019 07:00:00 21,1 18,3 11 6 N 1016,3 16 -
11.07.2019 06:00:00 21,7 18,3 11 6 N 1015,8 16 -
11.07.2019 05:00:00 21,7 18,9 11 6 NNW 1015,3 16 -
11.07.2019 04:00:00 22,2 20,6 8 4 NNW 1015,3 16 -
11.07.2019 03:00:00 22,8 20,6 13 7 NW 1015,6 16 -
11.07.2019 02:00:00 22,2 21,1 8 4 NW 1016,0 16 -

tt = temperature
td = dewpoint
ff = wind speed
dd = wind direction
ppp = reduced air pressure
vv = visibility
rr = precipitation

Next stations